User: anonymous   Login
Location: Unspecified
(0.0000°N, 0.0000°E)
Time: 07:01:13
(UTC+00:00)
Language:

TURKMENALEM 52E/MONACOSA - Orbit

View from above orbital plane
View from above orbital plane
View from above satellite
View from above satellite

Ground track
Ground track

The orbit data is extracted from the following two-line orbital elements,

1 40617U 15023A   18293.77445410  .00000099  00000-0  00000+0 0  9991
2 40617   0.0145  41.0916 0002809 160.2656 158.6629  1.00273342 12806
Epoch (UTC): 20 October 2018 18:35:12
Eccentricity: 0.0002809
inclination: 0.0145°
perigee height: 35774 km
apogee height: 35797 km
right ascension of ascending node: 41.0916°
argument of perigee: 160.2656°
revolutions per day: 1.00273342
mean anomaly at epoch: 158.6629°
orbit number at epoch: 1280

The dashed part of the orbit path shows where the satellite is in the earth's shadow,  

DLR